Tracking 19564 objects as of 20-Mar-2019
HD Live streaming from Space Station
objects crossing your sky now

FENGYUN 1C DEB

Track FENGYUN 1C DEB now!
10-day predictions


NORAD ID: 31674
Int'l Code: 1999-025CCG
Perigee: 810.8 km
Apogee: 863.6 km
Inclination: 98.9 °
Period: 101.5 minutes
Semi major axis: 7208 km
RCS: 0.0141 m2 (small)
Launch date: May 10, 1999
Source: People's Republic of China (PRC)
Launch site: Taiyaun Space Center, China (TSC)

Note: This is SATELLITE DEBRIS
aabbcc
Your satellite tracking list
Your tracking list is empty




NASA's NSSDC Master Catalog

Two Line Element Set (TLE):
1 31674U 99025CCG 19078.67338355  .00000905  00000-0  45554-3 0  9991
2 31674  98.8809  35.1029 0036626 215.9741 143.8968 14.18597706613431
Source of the keplerian elements: AFSPC